Date,Time,Air Temperature,Dewpoint,Windchill,Heat Index,RH,3m Max Wind Speed,3m Mean Wind Speed,3m Wind Direction,Rain,Solar Radiation
,,F,F,F,F,%,MPH,MPH,deg,in,MJ/m^2
2024-05-15,21:15,80.4,18.9,80.4,80.4,10.0,6.9,3.8,248.9,0.0,0
2024-05-15,21:20,80.1,18.8,80.1,80.1,10.1,6.3,4.1,240.2,0.0,0
2024-05-15,21:25,79.8,19.9,79.8,79.8,10.7,5.1,3.5,250.4,0.0,0
2024-05-15,21:30,79.5,19.2,79.5,79.5,10.5,6,3.7,249.8,0.0,0
2024-05-15,21:35,79.5,19.1,79.5,79.5,10.5,5.6,3.9,252.3,0.0,0
2024-05-15,21:40,79.2,19.7,79.2,79.2,10.8,5.6,4,246.5,0.0,0
2024-05-15,21:45,79.1,19.8,79.1,79.1,10.9,6,3.9,249.4,0.0,0
2024-05-15,21:50,78.7,19.8,78.7,78.7,11.0,5.5,3.5,257.8,0.0,0
2024-05-15,21:55,78.8,21.5,78.8,78.8,11.8,6.2,3.9,253.6,0.0,0
2024-05-15,22:00,78.4,20.1,78.4,78.4,11.3,8.3,3.2,246.9,0.0,0
2024-05-15,22:05,78.2,22.2,78.2,78.2,12.4,5.5,3.3,255,0.0,0
2024-05-15,22:10,78.2,21.4,78.2,78.2,12.0,6.2,4,243.9,0.0,0
2024-05-15,22:15,78.2,21.1,78.2,78.2,11.8,6.7,5,255.7,0.0,0
2024-05-15,22:20,78.6,21.7,78.6,78.6,12.0,9,5.4,243.8,0.0,0
2024-05-15,22:25,79,22,79.0,79,12.0,9.9,6.5,250.1,0.0,0
2024-05-15,22:30,79,22.1,79.0,79,12.0,10.6,6.6,249.5,0.0,0
2024-05-15,22:35,78.6,22.2,78.6,78.6,12.2,8,5.9,250.7,0.0,0
2024-05-15,22:40,78.3,22.5,78.3,78.3,12.5,8.3,5.2,252.6,0.0,0
2024-05-15,22:45,78.1,22.2,78.1,78.1,12.5,6.9,4.9,248.6,0.0,0
2024-05-15,22:50,78.2,22.6,78.2,78.2,12.7,8.7,5.7,245.9,0.0,0
2024-05-15,22:55,78.1,23,78.1,78.1,12.9,8.5,5.8,244.9,0.0,0
2024-05-15,23:00,78,23.5,78.0,78,13.2,7.6,5.8,244,0.0,0
2024-05-15,23:05,77.8,23.9,77.8,77.8,13.5,6.5,4.6,246,0.0,0
2024-05-15,23:10,77.6,23.7,77.6,77.6,13.5,6,4.3,243.8,0.0,0
2024-05-15,23:15,77.3,23.9,77.3,77.3,13.7,8.3,5.3,237.6,0.0,0
2024-05-15,23:20,77.2,23.6,77.2,77.2,13.6,8.1,6.1,247.1,0.0,0
2024-05-15,23:25,77.2,24,77.2,77.2,13.9,9.9,7.6,250.7,0.0,0
2024-05-15,23:30,77.1,23.8,77.1,77.1,13.8,9.2,6.2,238.4,0.0,0
2024-05-15,23:35,76.9,24.2,76.9,76.9,14.0,10.1,6.4,250.4,0.0,0
2024-05-15,23:40,76.9,24.1,76.9,76.9,14.0,9.6,6,237.6,0.0,0
2024-05-15,23:45,76.6,24.3,76.6,76.6,14.3,10.6,6.6,238.6,0.0,0
2024-05-15,23:50,76.7,24.7,76.7,76.7,14.5,8.8,5.9,240,0.0,0
2024-05-15,23:55,76.3,24.9,76.3,76.3,14.8,8,5.3,242.9,0.0,0
2024-05-16,00:00,76.3,25.1,76.3,76.3,14.9,8.5,4.9,240.7,0.0,0
2024-05-16,00:05,76,25,76.0,76,15.0,8.5,5.2,236.8,0.0,0
2024-05-16,00:10,75.9,25.7,75.9,75.9,15.5,8.5,4.8,224.6,0.0,0
2024-05-16,00:15,75.7,25.4,75.7,75.7,15.4,7.2,5.1,230.9,0.0,0
2024-05-16,00:20,75.4,25.5,75.4,75.4,15.6,7.8,4.9,231.4,0.0,0
2024-05-16,00:25,75.2,25.5,75.2,75.2,15.7,8.7,4.9,244.9,0.0,0
2024-05-16,00:30,74.9,26.8,74.9,74.9,16.8,6.5,4.2,251.8,0.0,0
2024-05-16,00:35,73.6,26.6,73.6,73.6,17.4,7.4,5,303.5,0.0,0
2024-05-16,00:40,73.9,27.4,73.9,73.9,17.8,7.2,5.3,277.2,0.0,0
2024-05-16,00:45,73.5,25.7,73.5,73.5,16.8,8.5,5.2,275.5,0.0,0
2024-05-16,00:50,73.4,27.5,73.4,73.4,18.2,7.2,5.3,287.1,0.0,0
2024-05-16,00:55,73.8,29.2,73.8,73.8,19.2,10.5,6.7,279.9,0.0,0
2024-05-16,01:00,73.9,30.1,73.9,73.9,19.8,8.7,7,296.7,0.0,0
2024-05-16,01:05,74.1,31.4,74.1,74.1,20.8,8.3,6.1,298.2,0.0,0
2024-05-16,01:10,74,34.2,74.0,74,23.4,9,6,296.4,0.0,0
2024-05-16,01:15,73.7,35.1,73.7,73.7,24.4,8.5,6.3,303.5,0.0,0
2024-05-16,01:20,73.3,35.8,73.3,73.3,25.4,8.7,5.7,304.5,0.0,0
2024-05-16,01:25,73.2,35.1,73.2,73.2,24.8,8.1,5.9,296.4,0.0,0
2024-05-16,01:30,72.9,35.8,72.9,72.9,25.8,8.8,5.7,296.6,0.0,0
2024-05-16,01:35,72.6,35.7,72.6,72.6,26.0,8.7,6.1,287.7,0.0,0
2024-05-16,01:40,72.6,36,72.6,72.6,26.3,10.3,7,298.4,0.0,0
2024-05-16,01:45,72.2,37.3,72.2,72.2,28.0,8.7,5.9,300.9,0.0,0
2024-05-16,01:50,72.3,36.7,72.3,72.3,27.2,12.1,8.4,301.6,0.0,0
2024-05-16,01:55,72.2,36.5,72.2,72.2,27.1,12.6,9.4,298.8,0.0,0
2024-05-16,02:00,72.1,37.5,72.1,72.1,28.3,11.5,7.8,306.6,0.0,0
2024-05-16,02:05,71.9,37.5,71.9,71.9,28.6,9.7,6.6,290.9,0.0,0
2024-05-16,02:10,71.5,36.4,71.5,71.5,27.8,9,6.5,292.3,0.0,0
2024-05-16,02:15,71.6,36.7,71.6,71.6,27.9,13.1,8.3,305.8,0.0,0
2024-05-16,02:20,71.4,37,71.4,71.4,28.5,9.6,6.4,317.6,0.0,0
2024-05-16,02:25,71.4,36.7,71.4,71.4,28.2,10.6,7.2,318.7,0.0,0
2024-05-16,02:30,71.2,36.5,71.2,71.2,28.0,12.2,7.5,324.3,0.0,0
2024-05-16,02:35,71.2,37.1,71.2,71.2,28.8,11.5,7.6,309.8,0.0,0
2024-05-16,02:40,71,36.7,71.0,71,28.5,15.1,9.3,328.4,0.0,0
2024-05-16,02:45,71,37,71.0,71,28.8,13.3,8.8,318.7,0.0,0
2024-05-16,02:50,70.7,37.3,70.7,70.7,29.5,12.2,8.4,310.7,0.0,0
2024-05-16,02:55,70.7,38.2,70.7,70.7,30.5,9.4,7.3,316.3,0.0,0
2024-05-16,03:00,70.4,37.8,70.4,70.4,30.4,12.1,7.6,321.9,0.0,0
2024-05-16,03:05,70.4,36.9,70.4,70.4,29.3,12.1,8.4,329,0.0,0
2024-05-16,03:10,70.2,37.6,70.2,70.2,30.4,20.8,10,334.1,0.0,0
2024-05-16,03:15,70.1,37.6,70.1,70.1,30.4,17.6,10.2,331.9,0.0,0
2024-05-16,03:20,69.7,37.3,69.7,69.7,30.5,16.4,9.6,331.8,0.0,0
2024-05-16,03:25,69.5,37.9,69.5,69.5,31.4,15.8,9.6,321.6,0.0,0
2024-05-16,03:30,69.4,37.4,69.4,69.4,31.0,14.7,9.6,329.6,0.0,0
2024-05-16,03:35,69,37.5,69.0,69,31.5,12.6,9.4,325.6,0.0,0
2024-05-16,03:40,68.7,37.1,68.7,68.7,31.4,12.8,8.6,335.3,0.0,0
2024-05-16,03:45,68.6,37.1,68.6,68.6,31.4,15.5,9.3,328.9,0.0,0
2024-05-16,03:50,68.5,39,68.5,68.5,34.0,14.2,10.3,343.6,0.0,0
2024-05-16,03:55,68.3,37.6,68.3,68.3,32.5,14,10,332.4,0.0,0
2024-05-16,04:00,68.1,37,68.1,68.1,31.8,13.5,9.3,345,0.0,0.000004021881
2024-05-16,04:05,68.2,37.3,68.2,68.2,32.1,12.2,8,355.6,0.0,0.000002011002
2024-05-16,04:10,67.9,38.4,67.9,67.9,33.8,10.6,7.7,343.7,0.0,0.000008043962
2024-05-16,04:15,67.6,37.2,67.6,67.6,32.7,12.2,6.8,352.7,0.0,0.00001005488
2024-05-16,04:20,67.9,37.3,67.9,67.9,32.5,8.7,5.3,13.2,0.0,0.00002011039
2024-05-16,04:25,67.8,37.1,67.8,67.8,32.3,9.2,5.9,11.9,0.0,0.00002011037
2024-05-16,04:30,67.8,37.4,67.8,67.8,32.7,9.2,7.1,16.2,0.0,0.00002413264
2024-05-16,04:35,67.7,37.6,67.7,67.7,33.1,9.6,6.8,346.4,0.0,0.00002413343
2024-05-16,04:40,67.3,38.5,67.3,67.3,34.7,10.8,7.6,333.7,0.0,0.00003217809
2024-05-16,04:45,67,38.1,67.0,67,34.5,11.7,7.1,331.7,0.0,0.00002413399
2024-05-16,04:50,66.6,38.6,66.6,66.6,35.6,6,4.6,312.1,0.0,0.00001810073
2024-05-16,04:55,66.1,38.3,66.1,66.1,35.9,6.7,5.1,304.8,0.0,0.00003217913
2024-05-16,05:00,66.2,39.5,66.2,66.2,37.5,5.8,4,312.2,0.0,0.00004223537
2024-05-16,05:05,66.1,38.1,66.1,66.1,35.7,7.4,4.5,319.6,0.0,0.0000502789
2024-05-16,05:10,66,38.8,66.0,66,36.7,8.3,4.7,314.9,0.0,0.00004424472
2024-05-16,05:15,66,37.7,66.0,66,35.1,5.1,3.8,345.2,0.0,0.00005027902
2024-05-16,05:20,66,38.4,66.0,66,36.1,4.9,3.2,357.9,0.0,0.0000522906
2024-05-16,05:25,66,38.4,66.0,66,36.1,6.2,3.6,349,0.0,0.00003016863
2024-05-16,05:30,65.8,38,65.8,65.8,35.9,6.7,4.3,336.2,0.0,0.00003419403
2024-05-16,05:35,66,38.1,66.0,66,35.8,6.7,4,5.9,0.0,0.00004827768
2024-05-16,05:40,66.5,37.5,66.5,66.5,34.4,6.2,4,18.6,0.0,0.00003822096
2024-05-16,05:45,66.6,37.5,66.6,66.6,34.3,6.2,4.5,32.6,0.0,0.00004425868
2024-05-16,05:50,66.1,38,66.1,66.1,35.4,6.9,5.3,24.1,0.0,0.00006035511
2024-05-16,05:55,65.7,37.7,65.7,65.7,35.6,8.8,5.2,25.1,0.0,0.0000945595
2024-05-16,06:00,65.5,37.9,65.5,65.5,36.1,6.3,5.1,12.3,0.0,0.0002414342
2024-05-16,06:05,65.4,37.5,65.4,65.4,35.6,8,5,21.5,0.0,0.0004728159
2024-05-16,06:10,65.3,38.1,65.3,65.3,36.7,10.3,5.7,14.6,0.0,0.0008329602
2024-05-16,06:15,65.2,37.7,65.2,65.2,36.3,8.8,6.1,15.8,0.0,0.001227315
2024-05-16,06:20,65.1,37.8,65.1,65.1,36.5,8.5,6,23.9,0.0,0.001724286
2024-05-16,06:25,65,37.9,65.0,65,36.8,9.4,6,25.2,0.0,0.002341993
2024-05-16,06:30,64.6,38.2,64.6,64.6,37.7,5.8,3.9,7.8,0.0,0.003120704
2024-05-16,06:35,63.8,38.5,63.8,63.8,39.3,8,5.1,325.3,0.0,0.003897343
2024-05-16,06:40,63.4,38.3,63.4,63.4,39.5,6.2,4,311.1,0.0,0.005066335
2024-05-16,06:45,63.5,38.7,63.5,63.5,40.0,6.9,4.7,324.8,0.0,0.00590545
2024-05-16,06:50,63.2,39.7,63.2,63.2,42.1,5.1,3.6,325.6,0.0,0.006718338
2024-05-16,06:55,63.4,39.6,63.4,63.4,41.4,6.3,4.3,327.2,0.0,0.007774836
2024-05-16,07:00,63.7,38.8,63.7,63.7,39.9,7.2,4.6,318.1,0.0,0.007191281
2024-05-16,07:05,63.7,40.1,63.7,63.7,41.9,6.9,4.5,310.4,0.0,0.008674269
2024-05-16,07:10,63.7,39.7,63.7,63.7,41.2,7.1,5.1,298.3,0.0,0.01209496
2024-05-16,07:15,64.2,39.9,64.2,64.2,40.9,8,5.8,308.1,0.0,0.009424619
2024-05-16,07:20,64.2,40.2,64.2,64.2,41.4,7.2,5.2,316.6,0.0,0.01969238
2024-05-16,07:25,64.5,40.9,64.5,64.5,42.0,10.5,6.5,320.9,0.0,0.02364452
2024-05-16,07:30,65,40.3,65.0,65,40.4,9.2,6.7,332.9,0.0,0.05285002
2024-05-16,07:35,65.1,41.8,65.1,65.1,42.6,7.8,5.2,340.5,0.0,0.05768086
2024-05-16,07:40,65.4,41.5,65.4,65.4,41.6,8.5,5.7,336.5,0.0,0.05918703
2024-05-16,07:45,65.6,41.4,65.6,65.6,41.2,8.1,5.2,314.2,0.0,0.07190158
2024-05-16,07:50,65.7,40.9,65.7,65.7,40.3,8.7,5.5,306.1,0.0,0.08062831
2024-05-16,07:55,65.8,40.2,65.8,65.8,39.1,8.3,5.8,289.6,0.0,0.08559585
2024-05-16,08:00,65.9,41.8,65.9,65.9,41.4,8.8,6.1,285.1,0.0,0.09060159
2024-05-16,08:05,65.9,40.9,65.9,65.9,40.0,7.2,4.7,305.1,0.0,0.09257186
2024-05-16,08:10,65.9,41,65.9,65.9,40.1,8.8,5.8,309.9,0.0,0.08481415
2024-05-16,08:15,66.5,41.6,66.5,66.5,40.3,10.1,6.2,326.3,0.0,0.1058197
2024-05-16,08:20,66.8,44,66.8,66.8,43.6,8.1,5.7,325.9,0.0,0.1111734
2024-05-16,08:25,66.6,43.3,66.6,66.6,42.9,9,6.1,315.8,0.0,0.1168514
2024-05-16,08:30,67,41.9,67.0,67,40.0,7.1,5.5,320.3,0.0,0.1221822
2024-05-16,08:35,67.6,43.9,67.6,67.6,42.3,6.3,4.7,320.2,0.0,0.1270593
2024-05-16,08:40,67.8,44.3,67.8,67.8,42.6,7.1,4.4,321.2,0.0,0.1318034
2024-05-16,08:45,68.1,44.6,68.1,68.1,42.7,5.8,3.6,304.4,0.0,0.1368556
2024-05-16,08:50,69.2,40.9,69.2,69.2,35.7,6,4.1,356.3,0.0,0.1418608
2024-05-16,08:55,70.1,41.1,70.1,70.1,34.9,3.3,2.1,32.2,0.0,0.1469965
2024-05-16,09:00,70.6,45.1,70.6,70.6,40.0,5.3,2.9,354.9,0.0,0.1520167
2024-05-16,09:05,70,43.3,70.0,70,38.0,5.1,3.5,342.9,0.0,0.1571109
2024-05-16,09:10,71,42.2,71.0,71,35.3,4.6,1.7,266.7,0.0,0.162003
2024-05-16,09:15,71.9,40.7,71.9,71.9,32.3,4.6,2.7,216.8,0.0,0.1671999
2024-05-16,09:20,71.5,40.6,71.5,71.5,32.7,6,3.2,277.1,0.0,0.1718423
2024-05-16,09:25,73.1,42.2,73.1,73.1,32.8,3.3,2.2,162.6,0.0,0.1765627
2024-05-16,09:30,72.7,44.7,72.7,72.7,36.6,6.3,3.5,240.2,0.0,0.1806747
2024-05-16,09:35,72.5,41.5,72.5,72.5,32.7,5.8,3.5,279.5,0.0,0.185415
2024-05-16,09:40,73,41.2,73.0,73,31.8,5.6,3.7,260.4,0.0,0.1892992
2024-05-16,09:45,73,39.7,73.0,73,30.0,5.1,3.6,293.3,0.0,0.1935017
2024-05-16,09:50,73.8,42.3,73.8,73.8,32.3,4.7,2.5,329.9,0.0,0.1985657
2024-05-16,09:55,73.7,44.9,73.7,73.7,35.8,5.6,3.7,291.4,0.0,0.2024817
2024-05-16,10:00,74.1,41.3,74.1,74.1,30.7,7.6,5.2,248.8,0.0,0.2060153
2024-05-16,10:05,73.2,43.5,73.2,73.2,34.5,8.5,5.4,285.5,0.0,0.2097636
2024-05-16,10:10,73.7,39.7,73.7,73.7,29.3,7.1,5,249.2,0.0,0.2147198
2024-05-16,10:15,73.8,41,73.8,73.8,30.7,6.9,5.2,294.5,0.0,0.2200173
2024-05-16,10:20,73.9,38.8,73.9,73.9,28.0,6.3,5,278.6,0.0,0.2273136
2024-05-16,10:25,74.7,40.1,74.7,74.7,28.7,4.9,2.9,313.4,0.0,0.2409694
2024-05-16,10:30,74.3,45.8,74.3,74.3,36.2,9.4,4.4,286,0.0,0.2641222
2024-05-16,10:35,74.1,47,74.1,74.1,38.2,8.1,5.3,321.6,0.0,0.2778327
2024-05-16,10:40,73.4,39.3,73.4,73.4,29.2,7.2,4.6,21.6,0.0,0.1707467
2024-05-16,10:45,75.7,41,75.7,75.7,28.8,6,3.2,329.4,0.0,0.2535579
2024-05-16,10:50,73.6,40.4,73.6,73.6,30.2,5.6,4.1,271.4,0.0,0.05034425
2024-05-16,10:55,73,39,73.0,73,29.2,6.3,3.7,336.9,0.0,0.03663112
2024-05-16,11:00,73.2,40.7,73.2,73.2,31.0,4.2,2.6,30.2,0.0,0.03146793
2024-05-16,11:05,73.1,38.6,73.1,73.1,28.6,6.7,3.4,279,0.0,0.02991152
2024-05-16,11:10,72.9,39.6,72.9,72.9,30.0,12.6,4.8,260.1,0.0,0.03095964
2024-05-16,11:15,73,32.9,73.0,73,22.9,15.8,11.3,258.8,0.0,0.04417834
2024-05-16,11:20,72.7,32.2,72.7,72.7,22.5,15.8,10.1,265.6,0.0,0.0555366
2024-05-16,11:25,73.1,37.3,73.1,73.1,27.2,11.9,8,263.3,0.0,0.06396063
2024-05-16,11:30,72.6,33.5,72.6,72.6,23.8,15.6,9.8,289.2,0.0,0.07784096
2024-05-16,11:35,71.8,38.7,71.8,71.8,30.0,15.5,8.4,305,0.0,0.06682349
2024-05-16,11:40,70.3,38.6,70.3,70.3,31.4,17.4,9.9,335.3,0.0,0.06602064
2024-05-16,11:45,69.8,38,69.8,69.8,31.2,15.6,10.5,332.3,0.0,0.08840504
2024-05-16,11:50,70.4,39.8,70.4,70.4,32.8,10.1,7.1,349,0.0,0.120051
2024-05-16,11:55,71,36.6,71.0,71,28.4,12.6,8.5,349.2,0.0,0.1574948
2024-05-16,12:00,72.4,36.6,72.4,72.4,27.1,12.2,9.8,12.6,0.0,0.2715745
2024-05-16,12:05,73.2,36.4,73.2,73.2,26.1,11.7,8.6,17.8,0.0,0.288488
2024-05-16,12:10,73.4,34.6,73.4,73.4,24.3,11,7.7,0.9,0.0,0.1628187
2024-05-16,12:15,74,35.3,74.0,74,24.4,12.6,7.9,256.6,0.0,0.12191
2024-05-16,12:20,73.7,32,73.7,73.7,21.6,11.3,7.4,255.9,0.0,0.122336
2024-05-16,12:25,73.3,33.2,73.3,73.3,22.9,14,9.5,241.4,0.0,0.2151405
2024-05-16,12:30,75.6,35,75.6,75.6,22.8,12.4,8.4,246.4,0.0,0.2731506
2024-05-16,12:35,75.3,33.9,75.3,75.3,22.1,16,10.2,250.6,0.0,0.2272135
2024-05-16,12:40,75.2,33.6,75.2,75.2,21.9,13.9,10.4,247.9,0.0,0.2082324
2024-05-16,12:45,74.9,33.9,74.9,74.9,22.3,16.7,11.5,239.3,0.0,0.1484537
2024-05-16,12:50,74.4,33.5,74.4,74.4,22.4,16.5,11.1,234.6,0.0,0.1626376
2024-05-16,12:55,76,32.8,76.0,76,20.6,13,9,236.7,0.0,0.2699992
2024-05-16,13:00,76.3,37,76.3,76.3,24.2,12.2,8.3,256.8,0.0,0.2529688
2024-05-16,13:05,75.5,34.1,75.5,75.5,22.1,13.7,9.8,249.7,0.0,0.244256
2024-05-16,13:10,76,35,76.0,76,22.6,11.9,7.4,243.5,0.0,0.1992512
2024-05-16,13:15,77.1,34.4,77.1,77.1,21.2,10.3,7.3,255.9,0.0,0.2952061
2024-05-16,13:20,76.2,34.8,76.2,76.2,22.2,13.1,7.9,248,0.0,0.2971881
2024-05-16,13:25,76.9,35.3,76.9,76.9,22.1,13.3,8.1,271.6,0.0,0.3068297
2024-05-16,13:30,76.9,36.9,76.9,76.9,23.6,12.8,8.4,301.1,0.0,0.3176891
2024-05-16,13:35,76.9,35.1,76.9,76.9,21.9,14.9,8.6,275.5,0.0,0.3110298
2024-05-16,13:40,78.1,33.8,78.1,78.1,20.0,11.9,6.6,275.5,0.0,0.3129365
2024-05-16,13:45,78.3,30.9,78.3,78.3,17.7,14,9.5,245.7,0.0,0.3032443
2024-05-16,13:50,77.7,35.4,77.7,77.7,21.7,12.4,6.7,278.6,0.0,0.2887902
2024-05-16,13:55,77.8,36.3,77.8,77.8,22.4,11.3,7.1,276.2,0.0,0.2700107
2024-05-16,14:00,77.1,33.7,77.1,77.1,20.6,11,7.1,268.7,0.0,0.2145017
2024-05-16,14:05,78.5,32.4,78.5,78.5,18.6,13,9.2,273.9,0.0,0.2718381
2024-05-16,14:10,78.3,30.5,78.3,78.3,17.4,11.7,8.8,246.3,0.0,0.307956
2024-05-16,14:15,78.1,32.3,78.1,78.1,18.8,10.8,6.7,253,0.0,0.2919796
2024-05-16,14:20,77.7,32.8,77.7,77.7,19.5,14.4,7.7,228.2,0.0,0.185132
2024-05-16,14:25,78,33.3,78.0,78,19.7,9.7,4.6,221.9,0.0,0.169029
2024-05-16,14:30,77.7,33.3,77.7,77.7,19.9,11,7.3,209.4,0.0,0.12142
2024-05-16,14:35,77.7,33.4,77.7,77.7,19.9,11,7.3,237.9,0.0,0.1199109
2024-05-16,14:40,77.6,31.8,77.6,77.6,18.8,9.7,5.9,244.8,0.0,0.1293489
2024-05-16,14:45,78,39.4,78.0,78,25.1,8.3,4.8,302.2,0.0,0.2022719
2024-05-16,14:50,78.1,33.9,78.1,78.1,20.1,13.3,7.7,264.2,0.0,0.1247961
2024-05-16,14:55,78.9,35.1,78.9,78.9,20.5,9.2,5.6,256.5,0.0,0.1332604
2024-05-16,15:00,78.8,34.2,78.8,78.8,19.8,13.9,9.4,235.1,0.0,0.1339627
2024-05-16,15:05,79.3,34.1,79.3,79.3,19.5,14.4,9.7,237.6,0.0,0.2341404
2024-05-16,15:10,79.3,30.1,79.3,79.3,16.6,14.2,8.4,262.2,0.0,0.291862
2024-05-16,15:15,79.9,30.6,79.9,79.9,16.6,13.9,8.9,236,0.0,0.2020663
2024-05-16,15:20,79.3,31.2,79.3,79.3,17.3,12.1,7.7,250.8,0.0,0.1116751
2024-05-16,15:25,78.8,30.6,78.8,78.8,17.2,15.5,9.3,245.9,0.0,0.1287345
2024-05-16,15:30,78,32.9,78.0,78,19.4,12.8,8.5,268.3,0.0,0.1271723
2024-05-16,15:35,79.1,31,79.1,79.1,17.3,9,6.6,240.5,0.0,0.1090209
2024-05-16,15:40,79,32.2,79.0,79,18.2,9.9,5.4,206.6,0.0,0.09667884
2024-05-16,15:45,79.4,31.9,79.4,79.4,17.8,9.7,3.8,232.9,0.0,0.08221079
2024-05-16,15:50,76.4,40.2,76.4,76.4,27.3,17.8,9,10.1,0.0,0.08784653
2024-05-16,15:55,73.8,40.4,73.8,73.8,30.0,18.3,13.5,11.6,0.0,0.177731
2024-05-16,16:00,73.1,40.9,73.1,73.1,31.2,19.8,13.6,7.8,0.0,0.09222914
2024-05-16,16:05,72.3,40.3,72.3,72.3,31.4,15.5,11.5,13.6,0.0,0.08772328
2024-05-16,16:10,70.7,41.1,70.7,70.7,34.2,20.6,15.3,12.2,0.0,0.08421679
2024-05-16,16:15,70.9,40.6,70.9,70.9,33.3,20.1,13.1,20.2,0.0,0.09138849
2024-05-16,16:20,71.1,40.3,71.1,71.1,32.7,16,12.2,26.9,0.0,0.05865638
2024-05-16,16:25,72.1,40.6,72.1,72.1,32.0,17.8,9.8,23.0,0.0,0.129964
2024-05-16,16:30,73.1,40.1,73.1,73.1,30.3,16.9,11.1,12.0,0.0,0.2405405
2024-05-16,16:35,73,39.5,73.0,73,29.7,17.8,12.2,25.2,0.0,0.2131185
2024-05-16,16:40,73.1,39.4,73.1,73.1,29.5,18.5,12.7,30.1,0.0,0.1947588
2024-05-16,16:45,73.5,39.8,73.5,73.5,29.5,19.6,11.4,36.9,0.0,0.1839661
2024-05-16,16:50,73.7,41.1,73.7,73.7,30.9,16,11.3,23.7,0.0,0.1791649
2024-05-16,16:55,73.9,40,73.9,73.9,29.4,17.4,12.3,27.7,0.0,0.173346
2024-05-16,17:00,74.3,40.6,74.3,74.3,29.7,18,10.9,29.9,0.0,0.170631
2024-05-16,17:05,74.3,39.6,74.3,74.3,28.6,16.9,10.4,30.8,0.0,0.1705544
2024-05-16,17:10,74.2,40.6,74.2,74.2,29.8,16.9,11.2,37.3,0.0,0.1683932
2024-05-16,17:15,75,39.4,75.0,75,27.6,11,9,24.7,0.0,0.1560283
2024-05-16,17:20,74.6,39.8,74.6,74.6,28.6,14.4,10.1,31.8,0.0,0.1224679
2024-05-16,17:25,74.3,39.9,74.3,74.3,28.9,15.1,9.1,15.7,0.0,0.09896962
2024-05-16,17:30,74.3,39.4,74.3,74.3,28.3,12.8,9.3,357.2,0.0,0.1321585
2024-05-16,17:35,75,38.2,75.0,75,26.4,14.6,9.5,27.2,0.0,0.1429028
2024-05-16,17:40,75.1,38.3,75.1,75.1,26.5,10.5,7.8,0.2,0.0,0.1422176
2024-05-16,17:45,75.5,36.8,75.5,75.5,24.6,10.8,7.9,26,0.0,0.1273336
2024-05-16,17:50,75.5,37.9,75.5,75.5,25.7,10.5,7.6,20.9,0.0,0.1246654
2024-05-16,17:55,75.8,36.8,75.8,75.8,24.3,10.6,7.7,11.4,0.0,0.131482
2024-05-16,18:00,75.3,36.7,75.3,75.3,24.7,12.8,7.9,34.9,0.0,0.09961449
2024-05-16,18:05,74.9,37.2,74.9,74.9,25.5,11.9,8.1,21.8,0.0,0.0703258
2024-05-16,18:10,74.6,37,74.6,74.6,25.6,11.2,7.9,3.3,0.0,0.09383207
2024-05-16,18:15,74.6,37.4,74.6,74.6,25.9,14,9,357.7,0.0,0.1054406
2024-05-16,18:20,75.1,36.7,75.1,75.1,24.9,10.5,7.7,15.8,0.0,0.0998139
2024-05-16,18:25,75,39.7,75.0,75,28,10.5,7.7,10.0,0.0,0.09285236
2024-05-16,18:30,75.4,37.7,75.4,75.4,25.5,11.2,7.3,3.0,0.0,0.07368968
2024-05-16,18:35,74.5,36.3,74.5,74.5,24.9,11.3,8.4,355.7,0.0,0.04055591
2024-05-16,18:40,74.8,37.6,74.8,74.8,26.0,13,9,346.8,0.0,0.07553346
2024-05-16,18:45,74,39.1,74.0,74,28.4,15.5,11.5,325.1,0.0,0.0721864
2024-05-16,18:50,73.8,38.4,73.8,73.8,27.7,16.9,9.6,325.8,0.0,0.06481178
2024-05-16,18:55,73.2,38.9,73.2,73.2,28.8,16,11.3,331.6,0.0,0.05268017
2024-05-16,19:00,72.9,37.6,72.9,72.9,27.8,15.1,10,316.8,0.0,0.04503884
2024-05-16,19:05,72.9,38,72.9,72.9,28.2,10.8,8,347.3,0.0,0.0190981
2024-05-16,19:10,73,38.3,73.0,73,28.3,11,6.7,4.5,0.0,0.01623323
2024-05-16,19:15,72.6,38.9,72.6,72.6,29.5,13,7.5,352.8,0.0,0.01682273
2024-05-16,19:20,72.4,38.3,72.4,72.4,28.9,11.7,7.8,8.0,0.0,0.007611485
2024-05-16,19:25,72.2,38.4,72.2,72.2,29.2,10.3,7.3,355.6,0.0,0.006137486
2024-05-16,19:30,72,38.5,72.0,72,29.6,10.6,7,354.8,0.0,0.007148403
2024-05-16,19:35,71.6,39.1,71.6,71.6,30.7,12.4,7.9,340.7,0.0,0.00470958
2024-05-16,19:40,71.4,39.3,71.4,71.4,31.1,11.9,7.9,338.7,0.0,0.004167289
2024-05-16,19:45,71.4,39.9,71.4,71.4,32.0,10.8,6.7,340.3,0.0,0.003448041
2024-05-16,19:50,71.6,39.2,71.6,71.6,30.8,10.6,6.8,345.5,0.0,0.00250972
2024-05-16,19:55,71.6,38.8,71.6,71.6,30.3,8.7,5.6,358.7,0.0,0.001567385
2024-05-16,20:00,71.6,38.9,71.6,71.6,30.5,7.6,5.6,353.9,0.0,0.0009304181
2024-05-16,20:05,71.5,38.9,71.5,71.5,30.6,6.7,4.7,6.4,0.0,0.0005445993
2024-05-16,20:10,71.3,38.7,71.3,71.3,30.5,9.7,7.4,17.9,0.0,0.0002974398
2024-05-16,20:15,71.3,38.8,71.3,71.3,30.6,9.9,6.2,3.9,0.0,0.0001507388
2024-05-16,20:20,71.1,38.6,71.1,71.1,30.6,10.8,6.4,13.9,0.0,0.00006632923
2024-05-16,20:25,70.9,38.8,70.9,70.9,31.0,9.2,6.6,22.3,0.0,0.000002010047
2024-05-16,20:30,70.9,39.1,70.9,70.9,31.4,9.2,6.4,9.8,0.0,0
2024-05-16,20:35,70.8,39.3,70.8,70.8,31.8,7.8,5.9,4.9,0.0,0
2024-05-16,20:40,70.4,39.5,70.4,70.4,32.4,7.4,5.4,0.6,0.0,0
2024-05-16,20:45,70.1,39.7,70.1,70.1,33.0,9.2,5.8,19.3,0.0,0
2024-05-16,20:50,70.1,39.8,70.1,70.1,33.2,7.2,5.5,12.5,0.0,0
2024-05-16,20:55,70,40.1,70.0,70,33.7,6.3,4.8,17.1,0.0,0
2024-05-16,21:00,69.7,40.4,69.7,69.7,34.5,7.8,4.2,356,0.0,0
2024-05-16,21:05,69.4,40.7,69.4,69.4,35.3,5.6,3.7,349.4,0.0,0.000004020731
2024-05-16,21:10,69.3,40.3,69.3,69.3,34.8,7.2,4.1,353.9,0.0,0
2024-05-16,21:15,69.5,40.2,69.5,69.5,34.5,6.2,4.1,10.9,0.0,0
2024-05-16,21:20,69.2,40.8,69.2,69.2,35.5,8,4.7,359.3,0.0,0
2024-05-16,21:25,69.1,40.7,69.1,69.1,35.5,8.5,4.2,3.9,0.0,0
2024-05-16,21:30,69.1,40.8,69.1,69.1,35.7,7.8,5.1,14.3,0.0,0
2024-05-16,21:35,69.3,40.6,69.3,69.3,35.2,10.3,6.1,12.8,0.0,0
2024-05-16,21:40,69.3,40.9,69.3,69.3,35.6,9.2,5.8,17.8,0.0,0
2024-05-16,21:45,69.2,40.9,69.2,69.2,35.8,7.2,5.8,18.2,0.0,0.000002010989
2024-05-16,21:50,69.1,41.1,69.1,69.1,36.1,8,5.5,8.2,0.0,0.000002011034
2024-05-16,21:55,68.9,41.3,68.9,68.9,36.7,6.7,3.9,0.3,0.0,0
2024-05-16,22:00,68.6,41.2,68.6,68.6,36.9,7.4,4.7,7.0,0.0,0.000006033117
2024-05-16,22:05,68.5,41.8,68.5,68.5,37.8,6.3,4.3,357.6,0.0,0.00001005523
2024-05-16,22:10,68.4,41.5,68.4,68.4,37.6,6.2,3.8,3.5,0.0,0.000006033062
2024-05-16,22:15,68.3,41,68.3,68.3,37.0,5.8,4.1,13.5,0.0,0.00001005527
2024-05-16,22:20,68.3,41.3,68.3,68.3,37.4,5.5,3.7,0.7,0.0,0.000002011015
2024-05-16,22:25,68.2,41.1,68.2,68.2,37.2,6.9,4.4,10.0,0.0,0.000004022032
2024-05-16,22:30,67.9,41.6,67.9,67.9,38.3,5.5,3.8,348,0.0,0.000008044275
2024-05-16,22:35,67.8,41.4,67.8,67.8,38.2,5.3,3.9,6.4,0.0,0.00001206674
2024-05-16,22:40,67.8,41.5,67.8,67.8,38.4,4,3.1,1.9,0.0,0.00002212261
2024-05-16,22:45,67.5,42,67.5,67.5,39.5,4,3.2,337.7,0.0,0.00002011111
2024-05-16,22:50,67.3,42.8,67.3,67.3,41.0,4.2,3.4,338.9,0.0,0.00002212257
2024-05-16,22:55,67.1,42.9,67.1,67.1,41.4,5.1,3.5,348.1,0.0,0.00001608913
2024-05-16,23:00,66.8,42.3,66.8,66.8,40.9,5.8,3.6,345.8,0.0,0.00003217832
2024-05-16,23:05,67,42.2,67.0,67,40.5,3.7,2.6,358.2,0.0,0.00003620082
2024-05-16,23:10,67,42.1,67.0,67,40.3,2.2,1.8,16.7,0.0,0.00002815635
2024-05-16,23:15,67,42.1,67.0,67,40.3,1.7,1.3,8.9,0.0,0.00003418951
2024-05-16,23:20,66.9,42,66.9,66.9,40.3,2.2,0.9,259.9,0.0,0.00004826735
2024-05-16,23:25,66.9,42.4,66.9,66.9,41.0,1.9,0.9,217.7,0.0,0.00004625742
2024-05-16,23:30,66.5,41.9,66.5,66.5,40.8,2.4,1.9,213.5,0.0,0.00004625902
2024-05-16,23:35,66.1,42.4,66.1,66.1,42.1,2.1,1.4,216.7,0.0,0.00004223867
2024-05-16,23:40,65.7,42.6,65.7,65.7,43.0,1.9,1,260.7,0.0,0.00003419568
2024-05-16,23:45,65,42.9,65.0,65,44.6,2.4,1.4,301.8,0.0,0.00003218558
2024-05-16,23:50,64.6,43,64.6,64.6,45.5,2.2,1.8,311.2,0.0,0.00002414108
2024-05-16,23:55,64.6,42.6,64.6,64.6,44.8,3.8,2.4,330.6,0.0,0.00002011841
2024-05-17,00:00,64.6,43.3,64.6,64.6,45.9,5.5,3.9,331.7,0.0,0.000008047576
2024-05-17,00:05,65.1,43.4,65.1,65.1,45.3,3.5,2.9,2.6,0.0,0.000002011987
2024-05-17,00:10,65.1,43.7,65.1,65.1,45.8,4,2.9,348.8,0.0,0
2024-05-17,00:15,65.1,44.1,65.1,65.1,46.6,4,2.9,350.9,0.0,0
2024-05-17,00:20,65,44,65.0,65,46.5,4.6,3,357.8,0.0,0
2024-05-17,00:25,65.2,43.9,65.2,65.2,46.0,3.5,2.3,6.2,0.0,0
2024-05-17,00:30,64.8,44.5,64.8,64.8,47.7,3.5,2.4,352.5,0.0,0
2024-05-17,00:35,64.5,44,64.5,64.5,47.4,3.5,2.7,339.8,0.0,0
2024-05-17,00:40,64.5,43.7,64.5,64.5,46.9,3,2,356.3,0.0,0.000008048416
2024-05-17,00:45,64.6,43.6,64.6,64.6,46.4,2.1,1.6,356.1,0.0,0.000004024248
2024-05-17,00:50,64.3,43.6,64.3,64.3,46.9,2.1,1.1,28.1,0.0,0
2024-05-17,00:55,64.3,43.6,64.3,64.3,46.9,1.7,1.1,2.9,0.0,0
2024-05-17,01:00,64.2,43.6,64.2,64.2,47.1,1.2,0.6,354.2,0.0,0
2024-05-17,01:05,64,44.5,64.0,64,49.0,2.4,1.4,96.5,0.0,0.000002012282
2024-05-17,01:10,63.9,44.8,63.9,63.9,49.7,2.2,1.4,97,0.0,0
2024-05-17,01:15,63.9,44,63.9,63.9,48.5,1.7,0.9,89.2,0.0,0
2024-05-17,01:20,63.7,43.6,63.7,63.7,48.0,2.6,1.1,36.6,0.0,0.000002012359
2024-05-17,01:25,63.4,44.1,63.4,63.4,49.4,1.3,0.3,186,0.0,0
2024-05-17,01:30,63.1,43.8,63.1,63.1,49.3,1.9,0.6,233,0.0,0.000002012527
2024-05-17,01:35,63.4,43.1,63.4,63.4,47.4,3.8,2.5,311.6,0.0,0
2024-05-17,01:40,63.7,43.3,63.7,63.7,47.4,3.5,3,293.8,0.0,0
2024-05-17,01:45,64,43.2,64.0,64,46.7,3.3,2.6,259.6,0.0,0
2024-05-17,01:50,64.1,43.7,64.1,64.1,47.4,3.5,2.5,280.7,0.0,0
2024-05-17,01:55,63.2,43.9,63.2,63.2,49.2,3.5,2.7,299.4,0.0,0
2024-05-17,02:00,63.2,43.6,63.2,63.2,48.6,4.2,2.8,309.6,0.0,0
2024-05-17,02:05,63.4,44.3,63.4,63.4,49.7,4.4,3.2,318.4,0.0,0
2024-05-17,02:10,63.5,44.3,63.5,63.5,49.5,4.7,3.5,339.6,0.0,0
2024-05-17,02:15,63.4,44.3,63.4,63.4,49.7,4.2,3.1,336.2,0.0,0
2024-05-17,02:20,63.2,44.1,63.2,63.2,49.7,4.7,3.3,338.1,0.0,0
2024-05-17,02:25,63.3,44,63.3,63.3,49.4,5.1,3.5,338,0.0,0
2024-05-17,02:30,63.2,44.4,63.2,63.2,50.1,4.6,2.9,311.6,0.0,0
2024-05-17,02:35,63,44.4,63.0,63,50.7,3,2.1,302.7,0.0,0
2024-05-17,02:40,62.8,43.9,62.8,62.8,50.0,3.1,2,272.3,0.0,0
2024-05-17,02:45,63,44.4,63.0,63,50.6,2.8,2.2,272.1,0.0,0